Home   Weather   Township of Washington   Past weeks
Flag for USA

Past Weather in Township of Washington, Indiana, USA — Yesterday and Last 2 Weeks

Now
46 °F

Light rain. Fog.


Feels Like: 44 °F
Forecast: 49 / 44 °F
Wind: 6 mph from Northeast

Location: Huntingburg Airport
Current Time: Oct 27, 2020 at 6:18:11 am
Latest Report: Oct 27, 2020 at 5:06 am
Visibility: 5 mi
Pressure30.24 "Hg
Humidity: 100%
Dew Point: 46 °F
Location of Township of WashingtonLocation

Past Weather in Township of Washington — Graph

°F

Township of Washington Temperature Yesterday

Maximum temperature yesterday: 52 °F (at 1:29 pm)
Minimum temperature yesterday: 46 °F (at 9:56 pm)
Average temperature yesterday: 48 °F

High & Low Weather Summary for the Past Weeks

 TemperatureHumidityPressure
High82 °F (Oct 22, 2:24 pm)100% (Oct 12, 5:02 am)30.34 "Hg (Oct 12, 5:02 am)
Low33 °F (Oct 16, 8:56 am)25% (Oct 17, 4:56 pm)29.75 "Hg (Oct 12, 2:56 pm)
Average56 °F83%30.10 "Hg
* Reported Oct 12 5:02 am — Oct 27 5:06 am, Township of Washington. Weather by CustomWeather, © 2020

Note: Actual official high and low records may vary slightly from our data, if they occured in-between our weather recording intervals... More about our weather records

Township of Washington Weather History for the Previous 24 Hours

Scroll right to see more
 ConditionsComfort  
Time TempWeatherWind HumidityBarometerVisibility
5:06 am
Tue, Oct 27
46 °FLight rain. Fog.6 mph100%30.24 "Hg5 mi
4:56 am46 °FFog.7 mph100%30.24 "Hg6 mi
3:56 am46 °FLight rain. Fog.5 mph100%30.26 "Hg5 mi
2:56 am46 °FLight rain. Fog.5 mph100%30.24 "Hg5 mi
2:24 am46 °FLight rain. Fog.5 mph100%30.26 "Hg6 mi
1:56 am46 °FLight rain. Fog.5 mph100%30.24 "Hg6 mi
1:36 am46 °FLight rain. Fog.6 mph100%30.23 "Hg6 mi
12:56 am47 °FLight rain. Fog.6 mph100%30.24 "Hg6 mi
12:32 am46 °FLight rain. Fog.6 mph100%30.23 "Hg6 mi
12:18 am46 °FLight rain. Fog.7 mph100%30.23 "Hg5 mi
11:56 pm
Mon, Oct 26
46 °FLight rain. Fog.6 mph100%30.24 "Hg5 mi
10:56 pm46 °FLight rain. Fog.5 mph100%30.24 "Hg6 mi
9:56 pm46 °FLight rain. Low clouds.3 mph100%30.26 "Hg7 mi
9:32 pm46 °FMostly cloudy.7 mph93%30.26 "Hg10 mi
8:56 pm47 °FLow clouds.6 mph93%30.26 "Hg10 mi
7:56 pm48 °FOvercast.5 mph89%30.25 "Hg10 mi
6:56 pm49 °FOvercast.7 mph86%30.23 "Hg10 mi
5:56 pm50 °FOvercast.6 mph83%30.23 "Hg10 mi
4:56 pm50 °FOvercast.N/A83%30.20 "Hg10 mi
3:56 pm51 °FMostly cloudy.6 mph80%30.19 "Hg10 mi
2:56 pm49 °FMostly cloudy.8 mph90%30.18 "Hg10 mi
2:18 pm48 °FMostly cloudy.8 mph94%30.18 "Hg10 mi
2:10 pm50 °FMore clouds than sun.9 mph88%30.18 "Hg10 mi
1:56 pm49 °FMostly cloudy.9 mph90%30.19 "Hg10 mi
1:29 pm52 °FOvercast.8 mph82%30.21 "Hg10 mi
12:56 pm48 °FLow clouds.8 mph93%30.22 "Hg9 mi
11:56 am49 °FMostly cloudy.3 mph93%30.20 "Hg7 mi
10:56 am48 °FFog.8 mph96%30.21 "Hg5 mi
9:56 am48 °FMostly cloudy.8 mph96%30.19 "Hg7 mi
8:56 am47 °FLow clouds.5 mph100%30.16 "Hg8 mi
8:06 am46 °FMostly cloudy.3 mph100%30.14 "Hg8 mi
7:58 am46 °FOvercast.3 mph100%30.13 "Hg9 mi
7:39 am46 °FMostly cloudy.3 mph100%30.13 "Hg10 mi
6:56 am47 °FMostly cloudy.No wind100%30.12 "Hg9 mi
6:38 am46 °FLow clouds.No wind100%30.12 "Hg8 mi
Weather by CustomWeather, © 2020

See weather overview